Location: Newark
(37.4028°N, 22.1369°E)
Time: 05:38:06
(UTC+00:00)

Envisat - Visible Passes

Search period start: 29 September 2020 00:00
Search period end: 09 October 2020 00:00
Orbit: 764 x 766 km, 98.1° (Epoch: 28 September)

Date Brightness Start Highest point End Pass type
(mag) Time Alt. Az. Time Alt. Az. Time Alt. Az.
29 Sep 6.5 17:18:36 10° WSW 17:20:17 12° W 17:21:59 10° WNW visible
30 Sep 5.4 03:47:13 10° NE 03:51:35 28° E 03:55:55 10° SSE visible
30 Sep 5.5 16:38:53 10° SSW 16:43:10 28° W 16:47:30 10° NW visible
01 Oct 6.4 03:12:35 10° ENE 03:14:28 12° E 03:16:19 10° ESE visible
02 Oct 6.2 17:05:53 10° SW 17:08:48 15° W 17:11:44 10° NW visible
03 Oct 5.8 03:36:13 10° NE 03:40:08 22° E 03:44:02 10° SE visible
05 Oct 4.7 04:00:58 10° NNE 04:05:43 40° E 04:10:28 10° SSE visible
05 Oct 6.1 16:53:42 10° SW 16:57:21 20° W 17:01:00 10° NW visible
06 Oct 6.1 03:25:23 10° NE 03:28:41 17° E 03:31:58 10° SE visible
07 Oct 6.7 17:22:17 10° W 17:23:03 10° W 17:23:48 10° W visible
08 Oct 5.2 03:49:49 10° NE 03:54:19 31° E 03:58:46 10° SSE visible
08 Oct 5.6 16:41:45 10° SSW 16:45:54 25° W 16:50:05 10° NW visible
